TimeCST,TemperatureF,Dew PointF,Humidity,Sea Level PressureIn,VisibilityMPH,Wind Direction,Wind SpeedMPH,Gust SpeedMPH,PrecipitationIn,Events,Conditions,WindDirDegrees,DateUTC
12:50 AM,30.2,30.2,100,30.02,10.0,West,5.8,-,N/A,,Clear,270,1997-12-30 06:50:00
1:52 AM,30.2,30.2,100,30.02,10.0,WNW,5.8,-,N/A,,Clear,290,1997-12-30 07:52:00
3:50 AM,30.2,28.4,93,30.04,10.0,West,8.1,-,N/A,,Clear,260,1997-12-30 09:50:00
4:50 AM,30.2,28.4,93,30.04,10.0,NW,4.6,-,N/A,,Clear,310,1997-12-30 10:50:00
5:50 AM,28.4,26.6,93,30.07,10.0,WSW,6.9,-,N/A,,Clear,250,1997-12-30 11:50:00
6:47 AM,28.4,26.6,93,30.04,10.0,South,5.8,-,N/A,,Clear,180,1997-12-30 12:47:00
7:47 AM,28.4,28.4,100,30.05,10.0,Calm,Calm,-,N/A,,Clear,0,1997-12-30 13:47:00
8:50 AM,30.2,24.8,80,30.08,10.0,WSW,5.8,-,N/A,,Clear,250,1997-12-30 14:50:00
9:50 AM,48.2,33.8,58,30.10,10.0,WSW,6.9,-,N/A,,Clear,240,1997-12-30 15:50:00
10:50 AM,51.8,32.0,47,30.10,10.0,SW,6.9,-,N/A,,Clear,220,1997-12-30 16:50:00
11:51 AM,55.4,30.2,38,30.07,10.0,SW,8.1,-,N/A,,Clear,230,1997-12-30 17:51:00
12:54 PM,59.0,32.0,36,30.04,10.0,WSW,9.2,-,N/A,,Clear,240,1997-12-30 18:54:00
1:50 PM,62.6,33.8,34,30.04,10.0,WSW,11.5,-,N/A,,Clear,240,1997-12-30 19:50:00
2:50 PM,62.6,33.8,34,30.02,10.0,SW,11.5,-,N/A,,Clear,220,1997-12-30 20:50:00
3:50 PM,62.6,33.8,34,30.01,10.0,SW,11.5,-,N/A,,Clear,230,1997-12-30 21:50:00
4:50 PM,62.6,33.8,34,30.03,10.0,SW,11.5,-,N/A,,Clear,230,1997-12-30 22:50:00
5:50 PM,53.6,35.6,51,30.04,10.0,SW,11.5,-,N/A,,Clear,230,1997-12-30 23:50:00
6:50 PM,50.0,35.6,58,30.08,10.0,WSW,9.2,-,N/A,,Clear,240,1997-12-31 00:50:00
7:55 PM,44.6,37.4,76,30.12,10.0,WSW,5.8,-,N/A,,Clear,250,1997-12-31 01:55:00
8:50 PM,46.4,35.6,66,30.12,10.0,WSW,6.9,-,N/A,,Clear,240,1997-12-31 02:50:00
9:50 PM,46.4,35.6,66,30.14,10.0,WSW,9.2,-,N/A,,Clear,250,1997-12-31 03:50:00
10:55 PM,48.2,35.6,62,30.16,10.0,NW,9.2,-,N/A,,Clear,310,1997-12-31 04:55:00
11:50 PM,46.4,35.6,66,30.20,10.0,NW,5.8,-,N/A,,Clear,320,1997-12-31 05:50:00